"Pseudo-MPEC" for 6E94521

Created 2026 May 15 20:35:04 UT using Find_Orb

Click here for an explanation of pseudo-MPECs

 
 Astrometry: 
     6E94521*KC2026 05 10.35874 19 17 21.97 -53 48 41.8    ~5AA5 18.2 GVNEOCPW94
     6E94521 KC2026 05 10.36505 19 17 23.24 -53 49 34.3    ~5AA5 18.2 GVNEOCPW94
     6E94521 KC2026 05 10.37138 19 17 24.68 -53 50 27.7    ~5AA5       VNEOCPW94
     6E94521 |C2026 05 11.13644019 20 37.810-55 36 49.00   ~5B45 18.6 GVNEOCP807
     6E94521 |C2026 05 11.14035019 20 38.920-55 37 23.20   ~5B45 19.6 GVNEOCP807
     6E94521 |C2026 05 11.14427019 20 39.880-55 37 54.90   ~5B45 20.1 GVNEOCP807
     6E94521 |C2026 05 11.14793019 20 40.780-55 38 27.20   ~5B45 20.7 GVNEOCP807
     6E94521 4C2026 05 11.24323 19 21 05.18 -55 51 56.4    ~5B6o 19.2 VqNEOCPW97
     6E94521 4C2026 05 11.24896 19 21 06.58 -55 52 44.6    ~5B6o 19.6 VqNEOCPW97
     6E94521 4C2026 05 11.25470 19 21 08.01 -55 53 33.5    ~5B6o 19.5 VqNEOCPW97
     6E94521 4C2026 05 11.26279 19 21 10.04 -55 54 41.3    ~5B7Z 18.9 VqNEOCPW97
     6E94521 4C2026 05 11.26858 19 21 11.57 -55 55 30.8    ~5B7Z 19.4 VqNEOCPW97
     6E94521 4C2026 05 11.27435 19 21 13.02 -55 56 19.7    ~5B7Z 19.3 VqNEOCPW97
     6E94521 0B2026 05 12.04827319 24 45.688-57 44 57.13   ~5C95       WNEOCPM21
     6E94521 0B2026 05 12.05856419 24 48.504-57 46 24.64   ~5C95 19.4 GWNEOCPM21
     6E94521 0B2026 05 12.06882119 24 51.314-57 47 51.39   ~5C95       WNEOCPM21
     6E94521 KB2026 05 12.09622819 25 00.539-57 51 33.61   ~5C3Z 20.0 VZNEOCPY05
     6E94521 KB2026 05 12.10974819 25 04.420-57 53 29.26   ~5C3Z 19.7 VZNEOCPY05
     6E94521 KB2026 05 12.12295019 25 08.152-57 55 22.06   ~5C3Z 19.6 VZNEOCPY05
     6E94521 |C2026 05 12.16255019 25 19.710-58 00 51.10   ~5C4Z 19.6 GVNEOCP807
     6E94521 |C2026 05 12.16647119 25 20.760-58 01 24.50   ~5C4Z 19.5 GVNEOCP807
     6E94521 |C2026 05 12.17039019 25 21.830-58 01 58.40   ~5C4Z 19.2 GVNEOCP807
     6E94521 4C2026 05 12.36631 19 26 17.59 -58 29 44.0    ~5CBo       qNEOCPW97
     6E94521 4C2026 05 12.37247 19 26 19.21 -58 30 35.6    ~5CBo 19.3 VqNEOCPW97
     6E94521 4C2026 05 12.37847 19 26 20.87 -58 31 27.9    ~5CBo       qNEOCPW97
     6E94521 4C2026 05 12.38748 19 26 23.50 -58 32 42.7    ~5CBo       qNEOCPW97
     6E94521 4C2026 05 12.39353 19 26 25.22 -58 33 34.2    ~5CBo       qNEOCPW97
     6E94521 4C2026 05 12.39955 19 26 26.95 -58 34 24.6    ~5CBo       qNEOCPW97
     6E94521 |C2026 05 13.12077019 30 14.960-60 15 45.60   ~5D3Z 19.3 GVNEOCP807
     6E94521 |C2026 05 13.12469019 30 16.230-60 16 19.00   ~5D3Z 19.5 GVNEOCP807
     6E94521 |C2026 05 13.12860419 30 17.560-60 16 52.70   ~5D3Z 19.3 GVNEOCP807
     6E94521 4C2026 05 13.38569 19 31 40.24 -60 53 21.1    ~5DHK       qNEOCPW97
     6E94521 4C2026 05 13.39157 19 31 42.10 -60 54 11.0    ~5DHK       qNEOCPW97
     6E94521 4C2026 05 13.39741 19 31 43.94 -60 55 00.6    ~5DHK       qNEOCPW97
     6E94521 |C2026 05 14.12576019 36 05.460-62 37 11.10   ~5E3o 19.0 GVNEOCP807
     6E94521 |C2026 05 14.13012019 36 07.050-62 37 48.30   ~5E3o 18.9 GVNEOCP807
     6E94521 |C2026 05 14.13449019 36 08.710-62 38 25.70   ~5E3o 19.1 GVNEOCP807
     6E94521 0C2026 05 14.14117919 36 08.285-62 39 34.96   ~5E4o 18.63oVNEOCPM22
     6E94521 0C2026 05 14.14542519 36 09.799-62 40 10.42   ~5E4o 19.02oVNEOCPM22
     6E94521 0C2026 05 14.15222219 36 12.286-62 41 07.98   ~5E4o 18.91oVNEOCPM22
     6E94521 0C2026 05 14.17201419 36 19.366-62 43 53.80   ~5E4o 19.15oVNEOCPM22
     6E94521 4C2026 05 14.38196 19 37 39.75 -63 13 24.5    ~5EAK 19.3 VqNEOCPW97
     6E94521 4C2026 05 14.38765 19 37 41.89 -63 14 12.3    ~5EAK 19.1 VqNEOCPW97
     6E94521 4C2026 05 14.39333 19 37 44.01 -63 14 59.9    ~5EAK 19.5 VqNEOCPW97
     6E94521 |C2026 05 15.17772119 43 08.220-65 04 21.30   ~5F4o 19.6 GVNEOCP807
     6E94521 |C2026 05 15.18034019 43 09.310-65 04 43.50   ~5F4o 19.8 GVNEOCP807
     6E94521 |C2026 05 15.18295019 43 10.490-65 05 05.70   ~5F4o 19.5 GVNEOCP807
     6E94521 4C2026 05 15.33135 19 44 13.66 -65 25 54.0    ~5F8o 19.5 VqNEOCPW97
     6E94521 4C2026 05 15.33714 19 44 16.12 -65 26 42.0    ~5F8o       qNEOCPW97
     6E94521 4C2026 05 15.34294 19 44 18.62 -65 27 31.0    ~5F8o 19.8 VqNEOCPW97
     6E94521 4C2026 05 15.38130 19 44 35.01 -65 32 50.1    ~5FA5 19.7 VqNEOCPW97
     6E94521 4C2026 05 15.38710 19 44 37.57 -65 33 38.0    ~5FA5       qNEOCPW97
     6E94521 4C2026 05 15.39291 19 44 40.00 -65 34 26.3    ~5FA5 19.4 VqNEOCPW97

Station data:
(807) Cerro Tololo Observatory, La Serena  (S30.169133 W70.805900)  Chile.
   Observer R. Holmes. 0.61-m f/6.5 astrograph + CCD.
(M21) Schiaparelli Southern Observatory, Hakos  (S23.236549 E16.361440)
   Namibia.  Observers A. Aletti, F. Bellini, L. Buzzi, G. Galli. Measurer L.
   Buzzi. 0.36-m f/8.4 reflector + CCD.
(M22) ATLAS South Africa, Sutherland  (S32.380156 E20.810590)  South Africa.
   Observers L. Denneau, R. Siverd, J. Tonry, H. Weiland. Measurers L.
   Denneau, N. Erasmus, A. Fitzsimmons, J. Robinson, R. Siverd, J. Tonry, H.
   Weiland. 0.5-m f/2.0 Schmidt + CCD.
(W94) AMACS1, San Pedro de Atacama  (S22.953074 W68.179810)  Chile.  Observers
   A. Maury, G. Attard. Measurers A. Maury, G. Attard, D. Parrott. 0.28-m
   f/2.2 Schmidt + CCD.
(W97) Atacama Desert Observatory, San Pedro de Atacama  (S22.953413
   W68.179760)  Chile.
(Y05) SONEAR Wykrota-CEAMIG, Serra da Piedade  (S19.824251 W43.690000)
   Brazil.  Observer C. Jacques. 0.45-m f/2.9 reflector + CMO.

Orbital elements:  6E94521
   Perihelion 2026 Jun 24.305088 +/- 0.346 TT =  7:19:19.6 (JD 2461215.805088)
Epoch 2026 May 15.0 TT = JDT 2461175.5   Earth MOID: 0.3348      AutoNEOCP
M 349.177290584 +/- 0.30            (J2000 ecliptic)
n   0.268519679 +/- 0.00529         Peri.  231.391351 +/- 0.27
a   2.379497771 +/- 0.0313          Node    56.863790 +/- 0.052
e   0.49587469 +/- 0.00598          Incl.   57.940229 +/- 0.13
P   3.67052                H 19.05  G  0.15   U  9.2
q 1.199565030 +/- 0.00153    Q 3.559430512 +/- 0.061
From 53 observations 2026 May 10-15; mean residual 0".33
Residuals in arcseconds: 
260510 W94  .76+  .25+    260512 Y05  .09-  .02-    260514 807  .12+  .21-    
260510 W94  .68-  .28+    260512 807  .28+  .09-    260514 M22  .15-  .04-    
260510 W94  .66-  .44-    260512 807  .32-  .04-    260514 M22  .20-  .20+    
260511 807  .08-  .20+    260512 807  .75-  .51-    260514 M22  .14+  .23-    
260511 807  .78+  .85-    260512 W97  .97+  .53+    260514 M22  .11-  .13+    
260511 807  .34+  .68+    260512 W97  .01-  .94+    260514 W97  .18-  .01-    
260511 807  .02-  .59-    260512 W97  .33-  .72-    260514 W97  .08+  .04-    
260511 W97  .29+  .11-    260512 W97  .25+  .48+    260514 W97  .22+  .03+    
260511 W97  .10-  .17+    260512 W97  .25+  .01-    260515 807  .05+  .08-    
260511 W97  .26-  .19-    260512 W97  .39+  .32+    260515 807  .14-  .18-    
260511 W97  .34-  .41+    260513 807  .10-  .14-    260515 807  .26+  .36-    
260511 W97  .26+  .15-    260513 807  .17-  .04-    260515 W97  .15-  .03-    
260511 W97  .23+  .29-    260513 807  .23+  .28-    260515 W97  .20-  .31+    
260512 M21  .21+  .03+    260513 W97  .26+  .35+    260515 W97  .03-  .29-    
260512 M21  .15+  .19-    260513 W97  .01+  .04+    260515 W97  .12-  .07+    
260512 M21  .12+  .00     260513 W97  .30-  .33-    260515 W97  .32+  .38+    
260512 Y05  .47-  .47+    260514 807  .10+  .01+    260515 W97  .09-  .34+    
260512 Y05  .08-  .18+    260514 807  .12-  .04-    

Ephemerides (geocentric):
Date (UTC) HH   RA             Dec           delta  r     elong  mag " sig PA
---- --------  ------------   ------------  ------ ------ -----  --- --------
2026 05 15 21  19 48 25.018   -66 40 51.40  .44140 1.2748 117.2 19.5 .147  82
2026 05 15 22  19 48 45.246   -66 46 35.54  .44143 1.2747 117.2 19.5 .153  81
2026 05 15 23  19 49 05.611   -66 52 19.44  .44146 1.2745 117.2 19.5 .158  81
2026 05 16 00  19 49 26.116   -66 58 03.09  .44149 1.2743 117.1 19.5 .164  80
2026 05 16 01  19 49 46.761   -67 03 46.50  .44153 1.2742 117.1 19.5 .169  80
2026 05 16 02  19 50 07.548   -67 09 29.66  .44157 1.2740 117.1 19.5 .175  79
2026 05 16 03  19 50 28.479   -67 15 12.56  .44160 1.2739 117.0 19.5 .181  79
2026 05 16 04  19 50 49.555   -67 20 55.20  .44164 1.2737 117.0 19.5 .187  79
2026 05 16 05  19 51 10.778   -67 26 37.58  .44168 1.2736 117.0 19.5 .193  78
2026 05 16 06  19 51 32.149   -67 32 19.69  .44173 1.2734 116.9 19.5 .199  78
2026 05 16 07  19 51 53.670   -67 38 01.53  .44177 1.2733 116.9 19.5 .205  77
2026 05 16 08  19 52 15.343   -67 43 43.09  .44181 1.2731 116.8 19.5 .211  77
2026 05 16 09  19 52 37.170   -67 49 24.37  .44186 1.2730 116.8 19.5 .217  77
2026 05 16 10  19 52 59.152   -67 55 05.37  .44191 1.2728 116.8 19.5 .224  76
2026 05 16 11  19 53 21.290   -68 00 46.08  .44196 1.2727 116.7 19.5 .230  76
2026 05 16 12  19 53 43.587   -68 06 26.50  .44201 1.2725 116.7 19.5 .237  76
2026 05 16 13  19 54 06.044   -68 12 06.62  .44206 1.2724 116.7 19.5 .243  75
2026 05 16 14  19 54 28.664   -68 17 46.45  .44211 1.2723 116.6 19.5 .250  75
2026 05 16 15  19 54 51.448   -68 23 25.97  .44216 1.2721 116.6 19.5 .257  75
2026 05 16 16  19 55 14.397   -68 29 05.18  .44222 1.2720 116.6 19.5 .263  75
2026 05 16 17  19 55 37.514   -68 34 44.08  .44228 1.2718 116.5 19.5 .270  74
2026 05 16 18  19 56 00.801   -68 40 22.66  .44234 1.2717 116.5 19.5 .277  74
2026 05 16 19  19 56 24.259   -68 46 00.93  .44240 1.2715 116.5 19.5 .284  74
2026 05 16 20  19 56 47.891   -68 51 38.87  .44246 1.2714 116.4 19.5 .291  73
2026 05 16 21  19 57 11.698   -68 57 16.48  .44252 1.2712 116.4 19.5 .298  73
2026 05 16 22  19 57 35.683   -69 02 53.75  .44258 1.2711 116.3 19.5 .306  73
2026 05 16 23  19 57 59.847   -69 08 30.69  .44265 1.2709 116.3 19.5 .313  73
2026 05 17 00  19 58 24.193   -69 14 07.29  .44271 1.2708 116.3 19.5 .320  72
2026 05 17 01  19 58 48.722   -69 19 43.54  .44278 1.2706 116.2 19.5 .328  72
2026 05 17 02  19 59 13.438   -69 25 19.44  .44285 1.2705 116.2 19.5 .335  72
2026 05 17 03  19 59 38.341   -69 30 54.98  .44292 1.2703 116.2 19.5 .343  72
2026 05 17 04  20 00 03.435   -69 36 30.16  .44299 1.2702 116.1 19.5 .350  71
2026 05 17 05  20 00 28.721   -69 42 04.99  .44307 1.2700 116.1 19.5 .358  71
2026 05 17 06  20 00 54.202   -69 47 39.44  .44314 1.2699 116.1 19.5 .366  71
2026 05 17 07  20 01 19.879   -69 53 13.52  .44322 1.2697 116.0 19.5 .374  71
2026 05 17 08  20 01 45.756   -69 58 47.22  .44329 1.2696 116.0 19.5 .382  70
2026 05 17 09  20 02 11.835   -70 04 20.54  .44337 1.2694 115.9 19.5 .389  70
2026 05 17 10  20 02 38.118   -70 09 53.47  .44345 1.2693 115.9 19.5 .398  70
2026 05 17 11  20 03 04.607   -70 15 26.01  .44353 1.2692 115.9 19.5 .406  70
2026 05 17 12  20 03 31.305   -70 20 58.16  .44362 1.2690 115.8 19.5 .414  70
2026 05 17 13  20 03 58.215   -70 26 29.91  .44370 1.2689 115.8 19.5 .422  69
2026 05 17 14  20 04 25.338   -70 32 01.25  .44379 1.2687 115.7 19.5 .430  69
2026 05 17 15  20 04 52.678   -70 37 32.17  .44387 1.2686 115.7 19.5 .439  69
2026 05 17 16  20 05 20.238   -70 43 02.69  .44396 1.2684 115.7 19.5 .447  69
2026 05 17 17  20 05 48.019   -70 48 32.78  .44405 1.2683 115.6 19.6 .455  68
2026 05 17 18  20 06 16.024   -70 54 02.45  .44414 1.2681 115.6 19.6 .464  68
2026 05 17 19  20 06 44.257   -70 59 31.69  .44423 1.2680 115.6 19.6 .473  68
2026 05 17 20  20 07 12.719   -71 05 00.50  .44433 1.2678 115.5 19.6 .481  68